This is the latest recevied weather packets stored in our database for station/object KE5AKC. If no packets are shown the sender has not sent any weather packets the latest 10 day(s).
| Time | Temp. | Humidity | Pressure | Rain* | Wind** | Luminosity | Snow |
|---|---|---|---|---|---|---|---|
| 1777601446 | 21.11° C | 86% | 1011 hPa | 0 mm | - | 0 W/m² | - |
| 1777601142 | 21.11° C | 86% | 1011 hPa | 0 mm | - | 0 W/m² | - |
| 1777600840 | 21.11° C | 86% | 1011 hPa | 0 mm | - | 0 W/m² | - |
| 1777600535 | 21.11° C | 85% | 1011 hPa | 0 mm | - | 0 W/m² | - |
| 1777600232 | 21.11° C | 85% | 1010.7 hPa | 0 mm | - | 0 W/m² | - |
| 1777599927 | 21.11° C | 85% | 1010.7 hPa | 0 mm | - | 0 W/m² | - |
| 1777599624 | 21.11° C | 85% | 1010.7 hPa | 0 mm | - | 0 W/m² | - |
| 1777599321 | 21.11° C | 86% | 1010.7 hPa | 0 mm | - | 0 W/m² | - |
| 1777599018 | 21.11° C | 86% | 1010.3 hPa | 0 mm | - | 0 W/m² | - |
| 1777598714 | 21.11° C | 85% | 1010 hPa | 0 mm | - | 0 W/m² | - |
| 1777598410 | 21.11° C | 85% | 1010 hPa | 0 mm | - | 0 W/m² | - |
| 1777598109 | 21.11° C | 85% | 1010 hPa | 0 mm | - | 0 W/m² | - |
| 1777597803 | 21.11° C | 85% | 1010.3 hPa | 0 mm | - | 0 W/m² | - |
| 1777597498 | 21.11° C | 85% | 1010 hPa | 0 mm | - | 0 W/m² | - |
| 1777597194 | 21.11° C | 85% | 1010 hPa | 0 mm | - | 1 W/m² | - |
| 1777596890 | 21.11° C | 85% | 1010 hPa | 0 mm | - | 3 W/m² | - |
| 1777596586 | 21.11° C | 85% | 1010.3 hPa | 0 mm | - | 3 W/m² | - |
| 1777596283 | 21.11° C | 85% | 1010 hPa | 0 mm | - | 5 W/m² | - |
| 1777595980 | 21.11° C | 85% | 1010.7 hPa | 0 mm | - | 5 W/m² | - |
| 1777595675 | 21.11° C | 84% | 1010 hPa | 0 mm | - | 8 W/m² | - |
| 1777595371 | 21.11° C | 85% | 1010 hPa | 0 mm | - | 18 W/m² | - |
| 1777595068 | 21.11° C | 85% | 1010 hPa | 0 mm | - | 34 W/m² | - |
| 1777594764 | 21.67° C | 85% | 1010 hPa | 0 mm | - | 26 W/m² | - |
| 1777594461 | 21.67° C | 85% | 1010 hPa | 0 mm | - | 26 W/m² | - |
| 1777594156 | 21.67° C | 84% | 1009.7 hPa | 0 mm | - | 35 W/m² | - |
* Rain latest hour (hover to see other rain measurements)
** Current wind speed in m/s (hover to see current wind gust speed)